QPF
0.00 0.00 0.00 0.00 0.00 0.00 0.00 0.00 0.00 0.00 0.00 0.00 0.00 0.00 0.00 0.00 0.00 0.00 0.00 0.00 0.00 0.00 0.00 0.00 0.00 0.00 0.00 0.00 0.00 0.00 0.00 0.00 0.00 0.00 0.00 0.00 0.00 0.00 0.00 0.00 0.00 0.00 0.00 0.00
0.00 0.00 0.00 0.00 0.00 0.00 0.00 0.00 0.00 0.00 0.00 0.00 0.00 0.00 0.00 0.00 0.00 0.00 0.00 0.00 0.00 0.00 0.00 0.00 0.00 0.00 0.00 0.00 0.00 0.00 0.00 0.00 0.00 0.00 0.00 0.00 0.00 0.00 0.00 0.00 0.00 0.00 0.00 0.00
0.00 0.00 0.00 0.00 0.00 0.00 0.00 0.00 0.00 0.00 0.00 0.00 0.00 0.00 0.00 0.00 0.00 0.00 0.00 0.00 0.00 0.00 0.00 0.00 0.00 0.00 0.00 0.00 0.00 0.00 0.00 0.00 0.00 0.00 0.00 0.00 0.00 0.00 0.00 0.00 0.00 0.00 0.00 0.00
0.00 0.00 0.00 0.00 0.00 0.00 0.00 0.00 0.00 0.00 0.00 0.00 0.00 0.00 0.00 0.00 0.00 0.00 0.00 0.00 0.00 0.00 0.00 0.00 0.00 0.00 0.00 0.00 0.00 0.00 0.00 0.00 0.00 0.00 0.00 0.00 0.00 0.00 0.00 0.00 0.00 0.00 0.00 0.00
0.00 0.00 0.00 0.00 0.00 0.00 0.00 0.00 0.00 0.00 0.00 0.00 0.00 0.00 0.00 0.00 0.00 0.00 0.00 0.00 0.00 0.00 0.00 0.00 0.00 0.00 0.00 0.00 0.00 0.00 0.00 0.00 0.00 0.00 0.00 0.00 0.00 0.00 0.00 0.00 0.00 0.00 0.00 0.00
0.00 0.00 0.00 0.00 0.00 0.00 0.00 0.00 0.00 0.00 0.00 0.00 0.00 0.00 0.00 0.00 0.00 0.00 0.00 0.00 0.00 0.00 0.00 0.00 0.00 0.00 0.00 0.00 0.00 0.00 0.00 0.00 0.00 0.00 0.00 0.00 0.00 0.00 0.00 0.00 0.00 0.00 0.00 0.00
0.00 0.00 0.00 0.00 0.00 0.00 0.00 0.00 0.00 0.00 0.00 0.00 0.00 0.00 0.00 0.00 0.00 0.00 0.00 0.00 0.00 0.00 0.00 0.00 0.00 0.00 0.00 0.00 0.00 0.00 0.00 0.00 0.00 0.00 0.00 0.00 0.00 0.00 0.00 0.00 0.00 0.00 0.00 0.00
0.00 0.00 0.00 0.00 0.00 0.00 0.00 0.00 0.00 0.00 0.00 0.00 0.00 0.00 0.00 0.00 0.00 0.00 0.00 0.00 0.00 0.00 0.00 0.00 0.00 0.00 0.00 0.00 0.00 0.00 0.00 0.00 0.00 0.00 0.00 0.00 0.00 0.00 0.00 0.00 0.00 0.00 0.00 0.00
0.00 0.00 0.00 0.00 0.00 0.00 0.00 0.00 0.00 0.00 0.00 0.00 0.00 0.00 0.00 0.00 0.00 0.00 0.00 0.00 0.00 0.00 0.00 0.00 0.00 0.00 0.00 0.00 0.00 0.00 0.00 0.00 0.00 0.00 0.00 0.00 0.00 0.00 0.00 0.00 0.00 0.00 0.00 0.00
0.00 0.00 0.00 0.00 0.00 0.00 0.00 0.00 0.00 0.00 0.00 0.00 0.00 0.00 0.00 0.00 0.00 0.00 0.00 0.00 0.00 0.00 0.00 0.00 0.00 0.00 0.00 0.00 0.00 0.00 0.00 0.00 0.00 0.00 0.00 0.00 0.00 0.00 0.00 0.00 0.00 0.00 0.00 0.00
0.00 0.00 0.00 0.00 0.00 0.00 0.00 0.00 0.00 0.00 0.00 0.00 0.00 0.00 0.00 0.00 0.00 0.00 0.00 0.00 0.00 0.00 0.00 0.00 0.00 0.00 0.00 0.00 0.00 0.00 0.00 0.00 0.00 0.00 0.00 0.00 0.00 0.00 0.00 0.00 0.00 0.00 0.00 0.01
0.00 0.00 0.00 0.00 0.00 0.00 0.00 0.00 0.00 0.00 0.00 0.00 0.00 0.00 0.00 0.00 0.00 0.00 0.00 0.00 0.00 0.00 0.00 0.00 0.00 0.00 0.00 0.00 0.00 0.00 0.00 0.00 0.00 0.00 0.00 0.00 0.00 0.00 0.00 0.00 0.00 0.00 0.00 0.01
0.00 0.00 0.00 0.00 0.00 0.00 0.00 0.00 0.00 0.00 0.00 0.00 0.00 0.00 0.00 0.00 0.00 0.00 0.00 0.00 0.00 0.00 0.00 0.00 0.00 0.00 0.00 0.00 0.00 0.00 0.00 0.00 0.00 0.00 0.00 0.00 0.00 0.00 0.00 0.00 0.00 0.00 0.00 0.00
0.00 0.00 0.00 0.00 0.00 0.00 0.00 0.00 0.00 0.00 0.00 0.00 0.00 0.00 0.00 0.00 0.00 0.00 0.00 0.00 0.00 0.00 0.00 0.00 0.00 0.00 0.00 0.00 0.00 0.00 0.00 0.00 0.00 0.00 0.00 0.00 0.00 0.00 0.00 0.00 0.00 0.00 0.00 0.00
0.00 0.00 0.00 0.00 0.00 0.00 0.00 0.00 0.00 0.00 0.00 0.00 0.00 0.00 0.00 0.00 0.00 0.00 0.00 0.00 0.00 0.00 0.00 0.00 0.00 0.00 0.00 0.00 0.00 0.00 0.00 0.00 0.00 0.00 0.00 0.00 0.00 0.00 0.00 0.00 0.00 0.00 0.00 0.00
0.00 0.00 0.00 0.00 0.00 0.00 0.00 0.00 0.00 0.00 0.00 0.00 0.00 0.00 0.00 0.00 0.00 0.00 0.00 0.00 0.00 0.00 0.00 0.00 0.00 0.00 0.00 0.00 0.00 0.00 0.00 0.00 0.00 0.00 0.00 0.00 0.00 0.00 0.00 0.00 0.01 0.01 0.01 0.00
0.00 0.00 0.00 0.00 0.00 0.00 0.00 0.00 0.00 0.00 0.00 0.00 0.00 0.00 0.00 0.00 0.00 0.00 0.00 0.00 0.00 0.00 0.00 0.00 0.00 0.00 0.00 0.00 0.00 0.00 0.00 0.00 0.00 0.00 0.00 0.00 0.00 0.01 0.01 0.01 0.01 0.01 0.01 0.00
0.00 0.00 0.00 0.00 0.00 0.00 0.00 0.00 0.00 0.00 0.00 0.00 0.00 0.00 0.00 0.00 0.00 0.00 0.00 0.00 0.00 0.00 0.00 0.00 0.00 0.00 0.00 0.00 0.00 0.00 0.00 0.00 0.00 0.00 0.00 0.01 0.01 0.01 0.01 0.01 0.01 0.01 0.01 0.01
0.00 0.00 0.00 0.00 0.00 0.00 0.00 0.00 0.00 0.00 0.00 0.00 0.00 0.00 0.00 0.00 0.00 0.00 0.00 0.00 0.00 0.00 0.00 0.00 0.00 0.00 0.00 0.00 0.00 0.00 0.00 0.00 0.00 0.01 0.01 0.01 0.01 0.01 0.01 0.01 0.01 0.01 0.01 0.01
0.00 0.00 0.00 0.00 0.00 0.00 0.00 0.00 0.00 0.00 0.00 0.00 0.00 0.00 0.00 0.00 0.00 0.00 0.00 0.00 0.00 0.00 0.00 0.00 0.00 0.00 0.00 0.00 0.00 0.00 0.01 0.01 0.01 0.01 0.01 0.01 0.01 0.01 0.01 0.01 0.00 0.00 0.00 0.01
0.00 0.00 0.00 0.00 0.00 0.00 0.00 0.00 0.00 0.00 0.00 0.00 0.00 0.00 0.00 0.00 0.00 0.00 0.00 0.00 0.00 0.00 0.00 0.00 0.00 0.00 0.00 0.00 0.01 0.01 0.01 0.01 0.01 0.01 0.01 0.00 0.00 0.00 0.00 0.00 0.00 0.00 0.00 0.01
0.00 0.00 0.00 0.00 0.00 0.00 0.00 0.00 0.00 0.00 0.00 0.00 0.00 0.00 0.00 0.00 0.00 0.00 0.00 0.00 0.00 0.00 0.00 0.00 0.00 0.00 0.00 0.01 0.01 0.01 0.01 0.00 0.00 0.00 0.00 0.00 0.00 0.00 0.00 0.00 0.00 0.01 0.01 0.01
0.00 0.00 0.00 0.00 0.00 0.00 0.00 0.00 0.00 0.00 0.00 0.00 0.00 0.00 0.00 0.00 0.00 0.00 0.00 0.00 0.00 0.00 0.00 0.00 0.00 0.00 0.01 0.01 0.00 0.00 0.00 0.00 0.00 0.00 0.00 0.00 0.00 0.01 0.01 0.01 0.01 0.01 0.01 0.01
0.00 0.00 0.00 0.00 0.00 0.00 0.00 0.00 0.00 0.00 0.00 0.00 0.00 0.00 0.00 0.00 0.00 0.00 0.00 0.00 0.00 0.00 0.00 0.00 0.00 0.00 0.00 0.00 0.00 0.00 0.00 0.00 0.00 0.00 0.01 0.01 0.01 0.01 0.01 0.01 0.01 0.01 0.01 0.01
0.00 0.00 0.00 0.00 0.00 0.00 0.00 0.00 0.00 0.00 0.00 0.00 0.00 0.00 0.00 0.00 0.00 0.00 0.00 0.00 0.00 0.00 0.00 0.00 0.00 0.00 0.00 0.00 0.00 0.00 0.00 0.00 0.00 0.01 0.01 0.01 0.01 0.01 0.01 0.01 0.01 0.01 0.01 0.01
0.00 0.00 0.00 0.00 0.00 0.00 0.00 0.00 0.00 0.00 0.00 0.00 0.00 0.00 0.00 0.00 0.00 0.00 0.00 0.00 0.00 0.00 0.00 0.00 0.00 0.00 0.00 0.00 0.00 0.00 0.00 0.00 0.00 0.01 0.01 0.01 0.01 0.01 0.01 0.01 0.01 0.01 0.02 0.01
0.00 0.00 0.00 0.00 0.00 0.00 0.00 0.00 0.00 0.00 0.00 0.00 0.00 0.00 0.00 0.00 0.00 0.00 0.00 0.00 0.00 0.00 0.00 0.00 0.00 0.00 0.00 0.00 0.00 0.00 0.00 0.00 0.00 0.01 0.01 0.01 0.01 0.01 0.01 0.01 0.02 0.02 0.02 0.01
MSLP
1018.54 1018.58 1018.58 1018.48 1018.25 1017.86 1017.30 1016.58 1015.72 1014.78 1013.81 1012.88 1012.05 1011.37 1010.86 1010.54 1010.38 1010.36 1010.44 1010.60 1010.80 1011.03 1011.27 1011.54 1011.85 1012.21 1012.64 1013.13 1013.69 1014.30 1014.94 1015.59 1016.22 1016.82 1017.37 1017.87 1018.31 1018.69 1019.01 1019.26 1019.45 1019.57 1019.61 1019.55
1018.15 1018.06 1017.89 1017.63 1017.25 1016.74 1016.09 1015.34 1014.51 1013.65 1012.80 1012.01 1011.34 1010.81 1010.44 1010.21 1010.12 1010.13 1010.21 1010.35 1010.50 1010.68 1010.87 1011.09 1011.35 1011.67 1012.07 1012.54 1013.09 1013.69 1014.32 1014.96 1015.59 1016.19 1016.74 1017.24 1017.67 1018.03 1018.34 1018.58 1018.75 1018.84 1018.85 1018.78
1017.70 1017.47 1017.16 1016.75 1016.24 1015.62 1014.92 1014.16 1013.37 1012.60 1011.87 1011.24 1010.72 1010.34 1010.10 1009.97 1009.94 1009.99 1010.08 1010.19 1010.31 1010.44 1010.58 1010.75 1010.98 1011.27 1011.64 1012.09 1012.61 1013.20 1013.82 1014.45 1015.06 1015.65 1016.18 1016.66 1017.06 1017.41 1017.68 1017.88 1018.02 1018.07 1018.06 1017.97
1017.16 1016.82 1016.39 1015.87 1015.27 1014.58 1013.85 1013.10 1012.37 1011.68 1011.08 1010.58 1010.21 1009.96 1009.83 1009.79 1009.82 1009.90 1009.99 1010.09 1010.18 1010.28 1010.39 1010.53 1010.72 1010.98 1011.33 1011.76 1012.27 1012.83 1013.43 1014.04 1014.64 1015.20 1015.70 1016.14 1016.51 1016.81 1017.04 1017.19 1017.28 1017.29 1017.24 1017.12
1016.50 1016.10 1015.59 1015.00 1014.34 1013.63 1012.89 1012.17 1011.49 1010.89 1010.39 1010.01 1009.76 1009.62 1009.58 1009.61 1009.69 1009.79 1009.90 1009.99 1010.07 1010.15 1010.24 1010.37 1010.55 1010.80 1011.13 1011.55 1012.04 1012.58 1013.16 1013.74 1014.30 1014.82 1015.29 1015.68 1016.00 1016.25 1016.42 1016.52 1016.55 1016.52 1016.42 1016.27
1015.69 1015.25 1014.72 1014.10 1013.43 1012.73 1012.02 1011.34 1010.72 1010.20 1009.78 1009.49 1009.32 1009.26 1009.28 1009.37 1009.48 1009.61 1009.73 1009.84 1009.93 1010.01 1010.11 1010.24 1010.43 1010.68 1011.01 1011.42 1011.89 1012.41 1012.96 1013.50 1014.03 1014.50 1014.92 1015.26 1015.52 1015.71 1015.82 1015.86 1015.83 1015.75 1015.62 1015.43
1014.67 1014.24 1013.72 1013.13 1012.49 1011.83 1011.17 1010.55 1010.00 1009.54 1009.19 1008.96 1008.85 1008.83 1008.90 1009.02 1009.16 1009.32 1009.46 1009.60 1009.72 1009.83 1009.97 1010.13 1010.34 1010.61 1010.94 1011.35 1011.81 1012.30 1012.81 1013.31 1013.78 1014.21 1014.56 1014.84 1015.04 1015.17 1015.22 1015.20 1015.13 1015.00 1014.82 1014.61
1013.42 1013.03 1012.57 1012.05 1011.48 1010.89 1010.31 1009.76 1009.28 1008.88 1008.58 1008.39 1008.31 1008.32 1008.41 1008.55 1008.73 1008.91 1009.10 1009.27 1009.45 1009.62 1009.80 1010.01 1010.26 1010.56 1010.91 1011.32 1011.76 1012.22 1012.69 1013.14 1013.55 1013.91 1014.20 1014.41 1014.55 1014.62 1014.61 1014.54 1014.42 1014.25 1014.04 1013.80
1011.97 1011.64 1011.26 1010.83 1010.37 1009.89 1009.40 1008.94 1008.53 1008.19 1007.94 1007.78 1007.73 1007.75 1007.86 1008.02 1008.22 1008.44 1008.67 1008.91 1009.14 1009.39 1009.64 1009.91 1010.21 1010.55 1010.92 1011.32 1011.74 1012.16 1012.58 1012.96 1013.30 1013.59 1013.81 1013.95 1014.02 1014.02 1013.96 1013.85 1013.68 1013.48 1013.24 1012.98
1010.36 1010.10 1009.83 1009.52 1009.19 1008.83 1008.46 1008.11 1007.78 1007.51 1007.31 1007.19 1007.15 1007.20 1007.32 1007.50 1007.73 1007.99 1008.27 1008.57 1008.88 1009.19 1009.52 1009.85 1010.21 1010.57 1010.95 1011.34 1011.73 1012.11 1012.46 1012.77 1013.03 1013.23 1013.37 1013.44 1013.44 1013.38 1013.27 1013.10 1012.90 1012.67 1012.41 1012.12
1008.70 1008.53 1008.37 1008.19 1007.99 1007.77 1007.54 1007.31 1007.09 1006.90 1006.76 1006.69 1006.68 1006.75 1006.89 1007.10 1007.35 1007.65 1007.99 1008.34 1008.71 1009.09 1009.47 1009.86 1010.25 1010.64 1011.02 1011.38 1011.72 1012.04 1012.32 1012.54 1012.72 1012.83 1012.88 1012.86 1012.79 1012.67 1012.50 1012.30 1012.06 1011.80 1011.52 1011.22
1007.14 1007.05 1006.99 1006.94 1006.89 1006.82 1006.73 1006.63 1006.53 1006.44 1006.38 1006.37 1006.41 1006.51 1006.68 1006.90 1007.19 1007.52 1007.89 1008.28 1008.69 1009.11 1009.53 1009.94 1010.35 1010.73 1011.09 1011.41 1011.70 1011.94 1012.13 1012.27 1012.35 1012.37 1012.32 1012.23 1012.09 1011.90 1011.68 1011.43 1011.16 1010.87 1010.57 1010.26
1005.82 1005.80 1005.83 1005.90 1005.99 1006.06 1006.11 1006.15 1006.18 1006.20 1006.24 1006.30 1006.39 1006.54 1006.73 1006.98 1007.28 1007.62 1008.01 1008.41 1008.83 1009.26 1009.68 1010.09 1010.47 1010.82 1011.14 1011.40 1011.62 1011.78 1011.88 1011.93 1011.91 1011.84 1011.71 1011.53 1011.32 1011.07 1010.80 1010.51 1010.21 1009.90 1009.58 1009.26
1004.85 1004.89 1005.01 1005.18 1005.39 1005.59 1005.78 1005.95 1006.10 1006.24 1006.37 1006.51 1006.66 1006.85 1007.07 1007.33 1007.63 1007.97 1008.33 1008.71 1009.11 1009.50 1009.89 1010.25 1010.58 1010.88 1011.13 1011.32 1011.46 1011.54 1011.55 1011.51 1011.40 1011.24 1011.04 1010.79 1010.51 1010.21 1009.89 1009.57 1009.24 1008.91 1008.58 1008.25
1004.31 1004.41 1004.60 1004.86 1005.15 1005.46 1005.76 1006.05 1006.31 1006.55 1006.77 1006.98 1007.19 1007.41 1007.65 1007.91 1008.19 1008.49 1008.80 1009.13 1009.46 1009.79 1010.10 1010.39 1010.64 1010.86 1011.03 1011.14 1011.19 1011.18 1011.12 1010.99 1010.81 1010.58 1010.31 1010.01 1009.68 1009.33 1008.98 1008.63 1008.28 1007.94 1007.61 1007.27
1004.25 1004.39 1004.63 1004.94 1005.30 1005.68 1006.07 1006.43 1006.78 1007.10 1007.39 1007.66 1007.91 1008.15 1008.38 1008.62 1008.86 1009.10 1009.34 1009.58 1009.82 1010.05 1010.26 1010.45 1010.61 1010.73 1010.81 1010.83 1010.80 1010.72 1010.58 1010.39 1010.15 1009.87 1009.55 1009.20 1008.83 1008.46 1008.09 1007.72 1007.36 1007.02 1006.68 1006.35
1004.63 1004.81 1005.08 1005.42 1005.81 1006.22 1006.65 1007.06 1007.46 1007.82 1008.15 1008.45 1008.72 1008.96 1009.17 1009.36 1009.54 1009.70 1009.85 1009.99 1010.12 1010.23 1010.33 1010.41 1010.46 1010.48 1010.46 1010.41 1010.30 1010.15 1009.96 1009.71 1009.43 1009.11 1008.76 1008.38 1008.00 1007.61 1007.22 1006.85 1006.49 1006.15 1005.82 1005.49
1005.40 1005.59 1005.87 1006.21 1006.60 1007.01 1007.44 1007.86 1008.26 1008.63 1008.97 1009.27 1009.52 1009.74 1009.91 1010.04 1010.14 1010.22 1010.27 1010.29 1010.30 1010.30 1010.28 1010.24 1010.19 1010.11 1010.01 1009.88 1009.71 1009.51 1009.26 1008.98 1008.67 1008.33 1007.95 1007.57 1007.17 1006.78 1006.39 1006.02 1005.66 1005.33 1005.00 1004.69
1006.44 1006.64 1006.90 1007.22 1007.57 1007.95 1008.34 1008.73 1009.10 1009.44 1009.75 1010.02 1010.24 1010.40 1010.52 1010.58 1010.60 1010.58 1010.53 1010.45 1010.35 1010.24 1010.11 1009.97 1009.82 1009.66 1009.49 1009.29 1009.07 1008.82 1008.54 1008.23 1007.89 1007.53 1007.15 1006.75 1006.36 1005.97 1005.58 1005.21 1004.86 1004.53 1004.22 1003.92
1007.63 1007.83 1008.06 1008.33 1008.62 1008.93 1009.26 1009.58 1009.89 1010.18 1010.43 1010.64 1010.80 1010.90 1010.95 1010.94 1010.88 1010.78 1010.63 1010.46 1010.27 1010.06 1009.84 1009.62 1009.40 1009.17 1008.92 1008.67 1008.40 1008.11 1007.80 1007.46 1007.10 1006.72 1006.33 1005.94 1005.54 1005.15 1004.76 1004.40 1004.05 1003.72 1003.41 1003.12
1008.85 1009.02 1009.22 1009.42 1009.64 1009.88 1010.12 1010.36 1010.59 1010.80 1010.98 1011.12 1011.21 1011.24 1011.21 1011.13 1010.99 1010.81 1010.59 1010.34 1010.08 1009.80 1009.51 1009.22 1008.94 1008.65 1008.35 1008.05 1007.74 1007.40 1007.06 1006.69 1006.31 1005.91 1005.51 1005.10 1004.70 1004.30 1003.92 1003.55 1003.21 1002.88 1002.57 1002.27
1009.98 1010.13 1010.27 1010.42 1010.56 1010.71 1010.87 1011.02 1011.17 1011.29 1011.38 1011.44 1011.46 1011.41 1011.32 1011.16 1010.96 1010.72 1010.44 1010.13 1009.81 1009.47 1009.14 1008.80 1008.46 1008.12 1007.78 1007.43 1007.08 1006.70 1006.32 1005.92 1005.50 1005.08 1004.66 1004.23 1003.82 1003.41 1003.02 1002.65 1002.30 1001.97 1001.65 1001.35
1010.96 1011.07 1011.17 1011.25 1011.33 1011.40 1011.48 1011.54 1011.60 1011.65 1011.66 1011.64 1011.58 1011.46 1011.30 1011.08 1010.83 1010.53 1010.20 1009.85 1009.48 1009.10 1008.73 1008.35 1007.97 1007.59 1007.21 1006.81 1006.41 1005.99 1005.57 1005.13 1004.68 1004.22 1003.77 1003.33 1002.89 1002.48 1002.08 1001.70 1001.34 1001.00 1000.67 1000.36
1011.74 1011.82 1011.87 1011.90 1011.92 1011.93 1011.94 1011.93 1011.92 1011.88 1011.82 1011.73 1011.60 1011.42 1011.19 1010.92 1010.62 1010.27 1009.90 1009.51 1009.10 1008.69 1008.28 1007.87 1007.45 1007.03 1006.61 1006.17 1005.72 1005.26 1004.78 1004.30 1003.81 1003.33 1002.84 1002.37 1001.92 1001.49 1001.08 1000.69 1000.32 999.97 999.63 999.31
1012.33 1012.38 1012.39 1012.38 1012.36 1012.32 1012.27 1012.21 1012.13 1012.03 1011.91 1011.75 1011.55 1011.31 1011.03 1010.71 1010.35 1009.96 1009.55 1009.12 1008.68 1008.24 1007.79 1007.34 1006.88 1006.42 1005.95 1005.47 1004.98 1004.47 1003.95 1003.43 1002.90 1002.38 1001.87 1001.38 1000.91 1000.46 1000.04 999.64 999.26 998.90 998.56 998.22
1012.76 1012.78 1012.77 1012.73 1012.66 1012.59 1012.50 1012.39 1012.26 1012.11 1011.93 1011.71 1011.45 1011.16 1010.82 1010.44 1010.04 1009.60 1009.15 1008.68 1008.20 1007.72 1007.23 1006.74 1006.25 1005.75 1005.23 1004.71 1004.17 1003.62 1003.06 1002.50 1001.94 1001.39 1000.86 1000.34 999.85 999.39 998.96 998.55 998.16 997.79 997.43 997.09
1013.09 1013.08 1013.04 1012.98 1012.89 1012.78 1012.66 1012.51 1012.34 1012.14 1011.90 1011.63 1011.32 1010.97 1010.57 1010.15 1009.69 1009.21 1008.70 1008.19 1007.67 1007.14 1006.62 1006.08 1005.54 1005.00 1004.44 1003.88 1003.30 1002.71 1002.12 1001.52 1000.94 1000.36 999.80 999.27 998.76 998.28 997.83 997.40 997.00 996.61 996.24 995.88
Thickness
5624 5620 5617 5619 5617 5611 5612 5621 5621 5633 5637 5648 5651 5648 5647 5645 5641 5636 5633 5629 5625 5621 5618 5612 5606 5600 5594 5587 5579 5571 5563 5556 5550 5542 5534 5525 5517 5510 5503 5495 5488 5481 5475 5468
5609 5608 5607 5607 5614 5613 5612 5617 5621 5625 5633 5648 5647 5642 5638 5637 5633 5629 5627 5623 5618 5613 5609 5605 5599 5593 5585 5578 5571 5562 5555 5548 5540 5532 5524 5516 5508 5501 5493 5486 5479 5472 5465 5458
5604 5598 5594 5603 5619 5617 5615 5619 5621 5621 5635 5642 5635 5632 5631 5629 5625 5622 5620 5616 5611 5606 5602 5597 5591 5584 5577 5569 5561 5552 5546 5538 5530 5522 5514 5506 5498 5491 5483 5476 5469 5462 5456 5449
5594 5587 5582 5625 5628 5624 5620 5623 5623 5624 5631 5631 5628 5625 5622 5620 5618 5616 5612 5606 5602 5597 5592 5586 5580 5573 5566 5558 5550 5542 5535 5528 5520 5512 5505 5496 5488 5481 5474 5467 5459 5453 5446 5439
5584 5591 5602 5615 5616 5613 5609 5618 5628 5623 5624 5623 5615 5609 5616 5613 5609 5606 5603 5597 5592 5586 5581 5575 5568 5561 5554 5547 5539 5531 5525 5518 5510 5502 5495 5486 5478 5471 5464 5456 5449 5442 5435 5428
5580 5580 5588 5618 5618 5612 5607 5610 5628 5620 5617 5613 5602 5605 5615 5606 5598 5593 5588 5583 5578 5573 5568 5563 5556 5549 5543 5536 5529 5521 5514 5507 5499 5491 5483 5476 5468 5460 5452 5445 5438 5431 5424 5417
5581 5581 5600 5615 5604 5599 5596 5615 5620 5615 5612 5606 5601 5607 5602 5593 5586 5580 5575 5569 5564 5560 5555 5549 5542 5536 5531 5525 5518 5510 5501 5494 5486 5479 5472 5464 5457 5449 5441 5433 5426 5420 5415 5408
5580 5577 5591 5605 5594 5599 5614 5616 5610 5607 5605 5600 5598 5591 5585 5579 5573 5568 5562 5557 5552 5548 5542 5535 5529 5524 5519 5512 5504 5496 5488 5481 5474 5467 5459 5451 5444 5437 5428 5421 5414 5409 5403 5397
5593 5602 5611 5603 5606 5608 5606 5604 5603 5600 5597 5591 5586 5581 5575 5569 5564 5558 5552 5546 5540 5535 5529 5522 5516 5511 5506 5498 5490 5482 5476 5469 5462 5454 5447 5439 5432 5425 5417 5409 5402 5396 5389 5383
5588 5597 5599 5596 5598 5597 5594 5594 5594 5591 5587 5582 5578 5574 5567 5560 5554 5547 5540 5534 5527 5522 5516 5510 5503 5496 5491 5483 5476 5469 5464 5457 5450 5443 5436 5428 5420 5412 5404 5397 5389 5381 5374 5368
5585 5593 5589 5592 5592 5593 5589 5586 5582 5579 5575 5572 5568 5563 5557 5550 5543 5536 5527 5520 5514 5509 5504 5497 5489 5483 5476 5469 5463 5457 5452 5445 5438 5430 5423 5417 5409 5401 5393 5385 5374 5365 5359 5351
5591 5595 5591 5595 5592 5587 5581 5578 5574 5569 5564 5560 5556 5552 5545 5538 5531 5523 5515 5508 5501 5496 5490 5484 5477 5471 5464 5457 5450 5444 5439 5432 5426 5418 5411 5404 5397 5392 5384 5372 5364 5353 5344 5335
5592 5588 5586 5584 5578 5574 5572 5568 5564 5559 5555 5549 5544 5538 5532 5524 5516 5508 5502 5495 5489 5483 5477 5471 5464 5458 5451 5444 5437 5431 5425 5419 5412 5405 5398 5390 5383 5376 5372 5366 5355 5344 5334 5324
5575 5572 5570 5569 5567 5562 5558 5553 5549 5543 5538 5534 5528 5522 5516 5509 5501 5495 5489 5483 5476 5469 5463 5457 5451 5445 5439 5432 5425 5418 5412 5405 5397 5391 5383 5375 5367 5359 5352 5347 5342 5337 5325 5314
5564 5563 5564 5559 5554 5548 5542 5538 5533 5528 5522 5516 5511 5507 5501 5495 5488 5481 5474 5468 5461 5456 5450 5444 5439 5433 5426 5419 5412 5406 5399 5392 5384 5377 5368 5360 5352 5344 5337 5329 5323 5318 5312 5304
5554 5549 5546 5544 5541 5535 5530 5527 5523 5517 5510 5503 5497 5492 5486 5480 5473 5466 5460 5454 5449 5444 5438 5431 5426 5420 5412 5405 5399 5393 5386 5378 5369 5361 5354 5346 5337 5329 5322 5314 5308 5302 5296 5290
5541 5539 5536 5533 5529 5524 5519 5515 5511 5503 5496 5489 5482 5476 5470 5464 5458 5452 5446 5440 5435 5429 5423 5418 5412 5406 5398 5392 5385 5379 5373 5365 5356 5347 5340 5332 5323 5315 5308 5301 5295 5289 5284 5277
5539 5537 5532 5528 5521 5513 5505 5498 5493 5486 5480 5474 5467 5461 5457 5452 5446 5439 5432 5426 5421 5416 5411 5405 5399 5392 5385 5379 5371 5365 5358 5352 5344 5335 5327 5319 5311 5303 5295 5289 5284 5278 5274 5268
5519 5517 5514 5509 5504 5498 5491 5483 5476 5470 5463 5458 5453 5448 5442 5436 5430 5424 5418 5413 5409 5405 5399 5392 5385 5379 5373 5366 5357 5351 5345 5338 5331 5323 5315 5307 5300 5293 5286 5280 5274 5268 5263 5259
5499 5496 5493 5488 5484 5479 5473 5466 5460 5454 5448 5443 5438 5432 5427 5421 5415 5409 5404 5400 5396 5391 5385 5378 5372 5367 5360 5352 5344 5338 5332 5325 5318 5311 5303 5296 5290 5283 5277 5271 5265 5260 5254 5250
5482 5478 5474 5470 5465 5460 5455 5450 5445 5439 5432 5428 5423 5418 5412 5406 5400 5395 5391 5389 5384 5377 5371 5365 5359 5353 5346 5339 5332 5326 5319 5312 5305 5298 5292 5285 5279 5274 5268 5262 5256 5251 5247 5243
5464 5461 5457 5453 5448 5441 5436 5432 5428 5422 5417 5412 5407 5401 5396 5391 5387 5383 5378 5374 5370 5362 5357 5352 5346 5339 5332 5326 5320 5314 5307 5300 5292 5286 5280 5274 5269 5264 5259 5253 5248 5244 5240 5237
5447 5443 5439 5434 5430 5424 5418 5414 5410 5406 5401 5396 5392 5387 5383 5379 5374 5370 5367 5361 5354 5348 5343 5338 5332 5325 5319 5313 5307 5300 5294 5287 5280 5274 5269 5264 5259 5254 5250 5246 5242 5238 5235 5232
5428 5424 5419 5414 5411 5406 5401 5396 5392 5388 5384 5380 5376 5371 5368 5364 5361 5356 5351 5345 5339 5334 5329 5324 5317 5312 5306 5300 5293 5287 5281 5275 5269 5264 5259 5254 5250 5246 5242 5239 5236 5233 5230 5227
5409 5404 5400 5397 5394 5390 5384 5379 5375 5372 5369 5365 5361 5357 5353 5349 5345 5341 5336 5330 5325 5320 5316 5311 5304 5298 5292 5286 5280 5275 5270 5264 5259 5254 5251 5247 5243 5239 5236 5233 5230 5227 5225 5223
5390 5388 5384 5381 5377 5373 5369 5365 5362 5359 5355 5352 5348 5343 5339 5335 5330 5326 5321 5316 5311 5307 5302 5297 5291 5285 5280 5275 5270 5265 5260 5255 5251 5246 5243 5239 5236 5234 5231 5229 5226 5223 5222 5221
5371 5369 5366 5362 5358 5355 5352 5350 5347 5343 5340 5337 5333 5330 5325 5321 5317 5312 5307 5303 5298 5293 5288 5283 5279 5274 5270 5265 5261 5256 5252 5247 5244 5240 5237 5235 5232 5230 5228 5225 5224 5222 5221 5220